CXI1KE EDDL-LGIR

Flight info

Callsign CXI1KE
Flight time N/A
Altitude 37000
Route DODEN7Z DODEN Y853 BOMBI DCT DETEV DCT DINKU M867 XERUM DCT BAVAX DCT RADIZ DCT NEMEK DCT VRANA DCT PETAK DCT PINDO UL607 GIVIS T514 XAVIS
Aircraft B38M/M-SDE1FGHILORVWXY/HB1

Departure

Time N/A
Airport Düsseldorf Airport (EDDL)

Arrival

Time 2026-04-30 20:33
Airport Heraklion International Nikos Kazantzakis Airport (LGIR)
Time Latitude Longitude Altitude Speed Heading
2026-04-30 20:06 36.08357 25.42098 30946 ft 439 kts 167°
2026-04-30 20:06 36.05453 25.43259 30039 ft 437 kts 166°
2026-04-30 20:06 36.02565 25.44427 28999 ft 436 kts 166°
2026-04-30 20:06 35.99702 25.45580 28176 ft 430 kts 166°
2026-04-30 20:07 35.96878 25.46716 27359 ft 424 kts 166°
2026-04-30 20:07 35.94091 25.47837 26570 ft 419 kts 166°
2026-04-30 20:07 35.88610 25.50037 25055 ft 410 kts 165°
2026-04-30 20:08 35.85913 25.51119 24328 ft 406 kts 165°
2026-04-30 20:08 35.83242 25.52189 23621 ft 402 kts 165°
2026-04-30 20:08 35.80595 25.53249 22776 ft 398 kts 165°
2026-04-30 20:08 35.77971 25.54299 21958 ft 394 kts 165°
2026-04-30 20:09 35.75373 25.55338 21185 ft 391 kts 165°
2026-04-30 20:09 35.72797 25.56367 20417 ft 388 kts 165°
2026-04-30 20:09 35.67691 25.58286 18895 ft 378 kts 175°
2026-04-30 20:10 35.63034 25.56467 17369 ft 351 kts 229°
2026-04-30 20:10 35.61838 25.53946 16626 ft 339 kts 257°
2026-04-30 20:10 35.61791 25.51151 15915 ft 332 kts 285°
2026-04-30 20:11 35.64818 25.47253 14526 ft 331 kts 342°
2026-04-30 20:11 35.67109 25.47162 13868 ft 334 kts
2026-04-30 20:11 35.69370 25.47749 13177 ft 330 kts
2026-04-30 20:12 35.73327 25.50412 11581 ft 342 kts 54°
2026-04-30 20:12 35.74138 25.53163 10824 ft 348 kts 84°
2026-04-30 20:12 35.73723 25.56034 10475 ft 338 kts 116°
2026-04-30 20:13 35.72263 25.58128 10404 ft 313 kts 149°
2026-04-30 20:13 35.70329 25.59017 10381 ft 285 kts 174°
2026-04-30 20:13 35.68456 25.59526 10308 ft 269 kts 158°
2026-04-30 20:13 35.66920 25.60792 10223 ft 267 kts 141°
2026-04-30 20:14 35.65484 25.62248 10108 ft 268 kts 133°
2026-04-30 20:14 35.64565 25.64192 9996 ft 263 kts 102°
2026-04-30 20:14 35.64502 25.66356 9971 ft 256 kts 72°
2026-04-30 20:14 35.65277 25.68264 9985 ft 248 kts 43°
2026-04-30 20:15 35.66663 25.69415 9990 ft 238 kts 14°
2026-04-30 20:15 35.68274 25.69848 10023 ft 238 kts
2026-04-30 20:15 35.69912 25.70165 10018 ft 238 kts
2026-04-30 20:15 35.71550 25.70478 10013 ft 238 kts
2026-04-30 20:16 35.73189 25.70791 10010 ft 238 kts
2026-04-30 20:16 35.74827 25.71105 10007 ft 238 kts
2026-04-30 20:16 35.76466 25.71419 10017 ft 238 kts
2026-04-30 20:16 35.78105 25.71732 10017 ft 238 kts
2026-04-30 20:17 35.79746 25.72042 10008 ft 239 kts
2026-04-30 20:17 35.81388 25.72352 10015 ft 239 kts
2026-04-30 20:17 35.83036 25.72663 10005 ft 239 kts
2026-04-30 20:17 35.84683 25.72927 9996 ft 237 kts 356°
2026-04-30 20:18 35.86229 25.72442 9962 ft 228 kts 326°
2026-04-30 20:18 35.87299 25.71046 9978 ft 227 kts 296°
2026-04-30 20:18 35.87623 25.69147 9802 ft 232 kts 267°
2026-04-30 20:18 35.87092 25.67261 9451 ft 240 kts 237°
2026-04-30 20:19 35.85810 25.65914 9067 ft 250 kts 208°
2026-04-30 20:19 35.84109 25.65486 8676 ft 259 kts 181°
2026-04-30 20:19 35.82301 25.65712 8310 ft 263 kts 176°
2026-04-30 20:19 35.80471 25.65815 7910 ft 264 kts 184°
2026-04-30 20:20 35.78621 25.65762 7509 ft 268 kts 185°
2026-04-30 20:20 35.76752 25.65688 7112 ft 269 kts 185°
2026-04-30 20:20 35.74883 25.65616 6718 ft 268 kts 185°
2026-04-30 20:20 35.73020 25.65542 6336 ft 267 kts 185°
2026-04-30 20:21 35.71166 25.65464 5932 ft 266 kts 185°
2026-04-30 20:21 35.69318 25.65374 5524 ft 264 kts 185°
2026-04-30 20:21 35.67505 25.65277 5207 ft 256 kts 185°
2026-04-30 20:21 35.65763 25.65179 4959 ft 246 kts 185°
2026-04-30 20:22 35.64090 25.65080 4695 ft 237 kts 185°
2026-04-30 20:22 35.62469 25.64986 4431 ft 230 kts 185°
2026-04-30 20:22 35.60877 25.64888 4174 ft 228 kts 187°
2026-04-30 20:22 35.59433 25.64247 3856 ft 220 kts 222°
2026-04-30 20:23 35.58487 25.62813 3736 ft 217 kts 242°
2026-04-30 20:23 35.57667 25.61246 3569 ft 219 kts 237°
2026-04-30 20:23 35.56795 25.59710 3346 ft 218 kts 237°
2026-04-30 20:23 35.55935 25.58199 3127 ft 212 kts 237°
2026-04-30 20:24 35.55103 25.56739 3037 ft 207 kts 237°
2026-04-30 20:24 35.54278 25.55294 3014 ft 206 kts 237°
2026-04-30 20:24 35.53455 25.53854 3026 ft 206 kts 237°
2026-04-30 20:24 35.52628 25.52411 3032 ft 207 kts 237°
2026-04-30 20:25 35.50977 25.49531 3035 ft 206 kts 237°
2026-04-30 20:25 35.50151 25.48093 3036 ft 206 kts 237°
2026-04-30 20:26 35.48500 25.45218 3039 ft 206 kts 237°
2026-04-30 20:26 35.46852 25.42350 3038 ft 206 kts 237°
2026-04-30 20:26 35.46026 25.40914 3041 ft 206 kts 237°
2026-04-30 20:27 35.44009 25.38532 2996 ft 208 kts 205°
2026-04-30 20:27 35.41330 25.37108 2547 ft 201 kts 206°
2026-04-30 20:28 35.39072 25.35895 2486 ft 170 kts 205°
2026-04-30 20:28 35.37073 25.34818 2573 ft 147 kts 205°
2026-04-30 20:29 35.35223 25.33821 2532 ft 145 kts 206°
2026-04-30 20:30 35.32879 25.31819 2336 ft 140 kts 262°
2026-04-30 20:30 35.33242 25.28297 1485 ft 138 kts 276°
2026-04-30 20:31 35.33498 25.24774 1233 ft 139 kts 278°
2026-04-30 20:32 35.33754 25.21255 509 ft 137 kts 271°
2026-04-30 20:32 35.33915 25.18919 133 ft 136 kts 271°
2026-04-30 20:33 35.33979 25.17952 101 ft 83 kts 275°
2026-04-30 20:33 35.34017 25.17174 84 ft 34 kts 253°
2026-04-30 20:33 35.33984 25.17083 84 ft 2 kts 245°
2026-04-30 20:34 35.33945 25.17066 82 ft 8 kts 153°
2026-04-30 20:34 35.33934 25.17166 82 ft 0 kts 88°
2026-04-30 20:36 35.33935 25.17206 83 ft 13 kts 88°
2026-04-30 20:36 35.33918 25.17350 87 ft 12 kts 113°
2026-04-30 20:36 35.33866 25.17377 90 ft 0 kts 182°
2026-04-30 20:38 35.33865 25.17377 90 ft 0 kts 180°
2026-04-30 20:38 35.33860 25.17382 89 ft 3 kts 140°